Location: Mas?o?skie
(50.6430°N, 19.2436°E)
Time: 14:30:26
(UTC+00:00)

Daily predictions for brighter satellites

Satellite Brightness Start Highest point End
(mag) Time Altitude Azimuth Time Altitude Azimuth Time Altitude Azimuth
Okean 2 Rocket 3.8 16:30:04 10° NNW 16:34:24 59° W 16:38:41 10° S
Cosmos 2150 Rocket 3.9 16:29:15 10° NNW 16:34:25 70° ENE 16:39:31 10° SSE
SJ-6F 4.3 16:30:38 10° SSE 16:34:32 79° ENE 16:38:28 10° NNW
Aureole 3 Rocket 2.3 16:31:58 10° N 16:35:30 80° ENE 16:38:33 10° SSE
SeaSat 1 2.5 16:31:34 10° SE 16:36:23 64° NE 16:41:15 10° NNW
Thor Agena Rocket 4.4 16:32:54 10° S 16:37:56 56° WSW 16:43:04 10° NNW
PSLV R/B 4.1 16:36:13 10° SE 16:39:54 34° ENE 16:43:35 10° N
Cosmos 2298 Rocket 4.0 16:36:24 10° NNW 16:41:43 75° ENE 16:47:01 10° SSE
CARTOSAT-1 4.1 16:37:59 10° SE 16:41:50 36° ENE 16:45:41 10° N
Cosmos 2228 3.3 16:38:17 10° N 16:42:20 44° ENE 16:46:22 10° SSE
Resurs 1-3 3.5 16:41:23 10° SSE 16:45:38 64° ENE 16:49:55 10° N
Cosmos 2221 Rocket 3.9 16:41:32 10° SSW 16:46:02 75° WNW 16:50:34 10° N
COSMO-SKYMED 1 3.1 16:42:19 10° NNE 16:46:03 33° E 16:49:47 10° SSE
Cosmos 2297 Rocket 2.4 16:40:26 10° SSW 16:46:06 80° WNW 16:51:49 10° NNE
Cosmos 1943 4.1 16:42:52 10° NNW 16:47:50 29° NE 16:52:46 10° ESE
Radarsat Rocket 4.1 16:42:26 10° SE 16:48:21 62° ENE 16:54:54 10° NNW
GP-B 4.4 16:45:24 10° SSW 16:49:35 45° W 16:53:49 10° NNW
SAR-Lupe-4 3.5 16:46:10 10° SSE 16:49:44 84° ENE 16:53:20 10° NNW
BREEZE-M DEB (TANK) 4.2 16:46:34 10° W 16:50:46 69° SSW 17:08:20 10° ESE
Geosat FO 4.1 16:49:33 10° NNE 16:52:37 74° ESE 16:55:35 10° SSW
Cosmos 1464 Rocket 4.1 16:47:47 10° N 16:54:04 59° ENE 17:00:14 10° SSE
SKYMED 2 3.5 16:49:49 10° NNE 16:54:10 69° ESE 16:58:30 10° S
Cosmos 1346 Rocket 3.2 16:53:35 10° SSE 16:56:53 34° E 17:00:14 10° NNE
RESURS DK-1 3.3 17:00:32 10° NNW 17:03:56 27° NE 17:06:36 14° E
Cosmos 2098 Rocket 3.9 17:02:00 10° NNE 17:04:11 17° ENE 17:05:28 14° E
SPOT 1/Viking Rocket 4.2 16:59:15 10° S 17:04:18 59° W 17:09:24 10° NNW
Cosmos 1602 2.7 17:02:27 10° S 17:05:11 66° E 17:07:56 10° NNE
Cosmos 2263 Rocket 2.5 17:00:33 10° S 17:05:54 45° ESE 17:11:18 10° NE
USA 234 3.6 16:59:31 10° SE 17:06:03 71° SW 17:12:37 10° WNW
ATLAS CENTAUR R/B 1.9 17:04:14 10° NNW 17:06:27 20° NE 17:07:30 17° ENE
Cosmos 1782 2.5 17:03:04 10° N 17:06:37 59° ENE 17:10:09 10° SSE
CZ-4C R/B 3.3 17:04:06 10° W 17:08:27 35° NNW 17:13:59 10° NE
Cosmos 2219 4.0 17:04:00 10° SSE 17:08:59 31° ESE 17:13:59 10° NE
SJ-7 4.0 17:09:35 10° SSE 17:13:16 82° ENE 17:16:57 10° NNW
Resurs 01 Rocket 1.6 17:09:55 10° SSE 17:14:13 57° ENE 17:18:34 10° N
Cosmos 2058 3.1 17:13:45 10° SSE 17:17:24 40° E 17:21:03 10° NNE
SL-16 R/B 4.4 17:12:30 10° N 17:17:45 30° NW 17:22:59 10° WSW
Tiangong 0.5 17:18:20 10° SW 17:20:07 14° S 17:21:54 10° SSE
Cosmos 2237 Rocket 4.3 17:15:26 10° NW 17:20:18 30° WSW 17:25:09 10° SSW
IRAS Rocket 4.3 17:16:59 10° SE 17:22:28 57° ENE 17:27:59 10° N
Cosmos 773 Rocket 4.5 17:19:32 10° SW 17:24:47 64° WNW 17:30:03 10° NNE
Cosmos 1862 3.2 17:23:56 10° SSE 17:27:21 45° E 17:30:48 10° NNE
YAOGAN 1 3.4 17:23:19 10° S 17:27:29 53° W 17:31:40 10° NNW
Cosmos 1544 Rocket 3.5 17:23:41 10° N 17:28:02 65° ENE 17:32:22 10° SSE
Cosmos 2344 3.6 17:21:49 10° SSW 17:29:25 57° SE 17:36:26 10° NE
Cosmos 2082 4.1 17:28:44 10° S 17:33:58 39° ESE 17:39:15 10° NE
Cosmos 972 Rocket 4.1 17:29:12 10° NNW 17:34:12 56° ENE 17:39:38 10° SE
Cosmos 783 Rocket 4.4 17:29:06 10° SSW 17:34:20 77° ESE 17:39:35 10° NNE
Helios 1A Rocket 3.8 17:36:31 21° SE 17:36:31 21° SE 17:38:04 10° SSE
Okean O Rocket 3.8 17:38:45 10° NE 17:38:45 10° NE 17:38:52 10° NE
Cosmos 1975 Rocket 3.4 17:33:15 10° SSW 17:37:33 67° WNW 17:41:52 10° N
Meteor 1-31 Rocket 3.1 17:39:42 33° ENE 17:39:52 33° ENE 17:43:01 10° N
SPOT 5 3.4 17:36:23 15° SE 17:40:10 41° ENE 17:45:03 10° N
Cosmos 2084 3.3 17:37:32 10° SSW 17:41:39 62° SE 17:43:47 27° ENE
ARIANE 6 FM1 Upper Stage 3.8 17:40:30 10° WNW 17:44:12 39° SW 17:47:55 10° SSE
Cosmos 2227 Rocket 2.6 17:40:27 10° SW 17:46:04 65° WNW 17:51:44 10° NNE
SJ-6B 2.3 17:44:36 10° SSE 17:48:02 88° ENE 17:51:31 10° NNW
SL-16 R/B 2.9 17:44:40 10° NW 17:50:12 56° WSW 17:55:42 10° S
Terra 3.1 17:50:53 22° NE 17:50:53 22° NE 17:53:59 10° N
ADEOS 4.3 17:54:13 31° E 17:55:00 32° ENE 17:59:36 10° N
Tsikada Rocket 3.9 17:49:16 10° S 17:55:18 61° E 18:01:25 10° NNE
Lacrosse 5 rocket 1.7 17:56:16 10° NW 17:59:38 38° NNE 17:59:58 37° NNE
CZ-4 R/B 1.7 18:02:23 40° NE 18:02:23 40° NE 18:05:24 10° N
ATLAS 2AS CENTAUR R/B 3.8 17:56:01 10° NW 18:01:55 30° NNE 18:04:58 22° NE
CSL-04 Debris 4.2 17:58:14 18° SE 18:02:10 59° ENE 18:07:29 10° N
BREEZE-M DEB (TANK) 4.3 17:43:42 10° WSW 18:05:04 67° S 18:08:11 33° ESE
CSL-04 Rocket 3.5 18:05:29 17° SSE 18:09:33 72° ENE 18:14:51 10° NNW
USA 267 3.4 18:06:30 23° ENE 18:10:52 71° NNW 18:17:23 10° WSW
ERS-1 Rocket 3.5 18:11:21 38° ENE 18:11:21 38° ENE 18:15:50 10° N
Cosmos 1420 Rocket 4.0 18:06:26 10° NNW 18:11:33 56° ENE 18:12:44 45° ESE
Cosmos 1844 Rocket 4.0 18:08:20 10° SSE 18:10:48 23° SSE 18:10:48 23° SSE
Feng Yun 1-1 Rocket 4.4 18:10:48 32° SE 18:13:26 57° ENE 18:19:14 10° N
CZ-4B R/B 3.4 18:15:23 44° E 18:15:49 45° ENE 18:20:50 10° N
Cosmos 1933 3.3 18:13:25 10° NNW 18:17:16 75° W 18:18:47 35° S
Cosmos 1634 Rocket 3.9 18:11:47 10° N 18:18:09 88° E 18:24:25 10° S
Iridium 4 Rocket 3.1 18:14:56 10° N 18:19:16 60° ENE 18:19:16 60° ENE
Cosmos 44 4.2 18:15:15 10° NNW 18:20:13 37° NE 18:20:43 36° NE
CZ-4B DEB 4.1 18:18:00 35° SE 18:20:17 68° ENE 18:25:42 10° N
COSMO-SKYMED 1 4.5 18:17:42 10° N 18:21:16 29° WNW 18:24:48 10° SW
Gbstr 26 Del rocket 4.2 18:18:18 10° WSW 18:25:14 84° SSE 18:28:25 40° ENE
Cosmos 1726 Rocket 3.6 18:20:55 10° N 18:25:17 64° ENE 18:25:17 64° ENE
Cosmos 2084 Rocket 4.4 18:26:00 10° NW 18:29:16 36° N 18:29:16 36° N
Meteor 1-26 Rocket 4.3 18:24:54 10° N 18:30:36 53° ENE 18:30:45 53° ENE
Cosmos 2297 Rocket 4.4 18:26:47 10° W 18:31:03 21° NW 18:35:21 10° NNE
Cosmos 2082 Rocket 4.4 18:29:30 10° N 18:31:32 12° NNE 18:32:22 11° NNE
Cosmos 1943 3.5 18:26:39 10° NNW 18:32:19 67° WSW 18:35:25 27° S
Cosmos 2279 Rocket 3.8 18:27:01 10° N 18:33:16 81° E 18:36:48 27° SSE
ATLAS CENTAUR R/B 3.1 18:37:35 10° NW 18:38:39 19° WNW 18:38:39 19° WNW
RESURS DK-1 3.3 18:37:42 10° NW 18:41:28 41° WSW 18:41:54 40° SW
Cosmos 2098 Rocket 4.1 18:38:50 10° NNW 18:41:44 32° W 18:42:25 29° WSW
BREEZE-M DEB (TANK) 4.1 18:28:56 10° WSW 18:42:08 63° SSE 18:42:44 59° SE
Cosmos 1536 Rocket 4.3 18:40:35 10° SSW 18:44:50 52° WNW 18:49:09 10° N
Cosmos 2263 Rocket 3.4 18:44:34 10° WSW 18:49:54 40° NW 18:55:16 10° NNE
Cosmos 1606 Rocket 4.1 18:46:30 10° NNW 18:50:46 55° W 18:51:12 52° WSW
Resurs 01 Rocket 4.3 18:47:50 10° SW 18:50:56 19° W 18:54:05 10° NW
Meteor 2-3 Rocket 3.6 18:45:25 10° S 18:51:06 87° ESE 18:56:54 10° NNE
Cosmos 2219 3.9 18:47:14 10° SW 18:52:51 55° NW 18:58:04 12° NNE
Cosmos 1603 3.5 18:47:35 10° NNW 18:53:15 90° ENE 18:53:31 82° SSE
Cosmos 1538 Rocket 4.4 18:51:32 10° SW 18:56:50 62° WNW 19:01:00 17° NNE
CZ-4C R/B 4.0 18:53:52 10° NW 18:58:23 25° N 19:00:15 22° NNE
Cosmos 2056 Rocket 3.8 19:02:03 10° NNW 19:06:22 60° NNW 19:06:22 60° NNW
Meteor 2-2 Rocket 4.3 19:02:42 10° NNW 19:08:18 79° NNW 19:08:18 79° NNW
Cosmos 1833 Rocket 3.9 19:05:24 10° NNW 19:08:54 30° NNE 19:08:54 30° NNE
Okean O Rocket 3.8 19:15:59 18° N 19:15:59 18° N 19:17:12 10° N
MetOp-B 4.4 19:14:23 67° WNW 19:14:23 67° WNW 19:19:18 10° NNW
Terra 3.3 19:29:30 32° NW 19:29:30 32° NW 19:32:11 10° NNW
CZ-4 R/B 4.1 19:37:22 15° WNW 19:37:22 15° WNW 19:38:43 10° NW
Lacrosse 5 rocket 4.3 19:33:01 10° WNW 19:33:23 12° WNW 19:33:23 12° WNW
Cosmos 2344 4.2 19:36:56 10° WSW 19:43:58 46° NNW 19:46:51 32° NNE
USA 267 3.8 19:53:50 51° NNW 19:53:50 51° NNW 19:59:47 10° WNW
ATLAS 2AS CENTAUR R/B 3.3 19:47:22 10° NW 19:52:23 47° NNW 19:52:23 47° NNW
Cosmos 2082 Rocket 4.4 20:12:33 10° NNW 20:14:12 18° N 20:14:12 18° N
CZ-4C R/B 4.4 20:42:37 10° NW 20:45:12 24° NNW 20:45:12 24° NNW
